Powrót do katalogu

DELTA 1 DEB

AktywnySSO
NORAD 12218·DEBRIS·🇺🇸 United States

Wystrzelony Mar 5, 1978 z Vandenberg Space Force Base

Loading…

Następne Przeloty (najbliższe 24 godziny)

TLE

ŚwieżeSource: Space-Track

Epoka: Sep 14, 2026, 15:47 UTC

1 12218U 78026BK  26257.65783278 -.00000056  00000-0 -63360-5 0  9991
2 12218  99.3138 142.5827 0051339 289.5757  88.8443 13.98265434322133

Śledź DELTA 1 DEB w czasie rzeczywistym z AllMySat

Download on the App Store